Location: Ladirat
(44.8151°N, 1.9702°E)
Time: 15:54:08
(UTC+00:00)

Cosmos 1634 Rocket - Pass Details

Date: 15 May 2026
Orbit: 960 x 990 km, 82.9° (Epoch: 10 June)

Event Time Altitude Azimuth Distance (km) Brightness Sun altitude
Exits shadow 22:22:34 49° 166° (SSE) 1,228 4.1 -23.2°
Maximum altitude 22:24:18 75° 95° (E) 999 3.9 -23.3°
Drops below altitude 10° 22:30:30 10° 11° (NNE) 2,718 7.1 -23.7°
Sets 22:33:02 0° 10° (N) 3,673 8.0 -23.9°
